Weather History for KMLS - November, 2013

Change the Weather History Date:

Friday, November 1, 2013

  Actual Average Record
Temperature  
Mean Temperature 45 °F 40 °F  
Max Temperature 56 °F 51 °F 75 °F (1965)
Min Temperature 33 °F 28 °F -2 °F (1984)
Degree Days  
Heating Degree Days 20 25  
Month to date heating degree days 20 25  
Since 1 July heating degree days 725 836  
Cooling Degree Days 0 0  
Month to date cooling degree days 0 0  
Year to date cooling degree days 877 730  
Moisture  
Dew Point 28 °F    
Average Humidity 54    
Maximum Humidity 79    
Minimum Humidity 29    
Precipitation  
Precipitation T in 0.02 in 1.17 in (1957)
Month to date precipitation T 0.02  
Year to date precipitation 16.40 11.78  
Sea Level Pressure  
Sea Level Pressure 30.04 in    
Wind  
Wind Speed 14 mph (WNW)    
Max Wind Speed 29 mph    
Max Gust Speed 36 mph    
Visibility 10 miles    
Events Rain    
T = Trace of Precipitation, MM = Missing Value Source: NWS Daily Summary

Daily Weather History Graph

Daily Weather History Graph

Search for Another Location

Airport or City:

Trip Planner

Search our weather history database for the weather conditions in past years. The results will help you decide how hot, cold, wet, or windy it might be!

Date:

Astronomy

Nov. 01, 2013 Rise Set
Actual Time 7:45 AM MDT 5:48 PM MDT
Civil Twilight 7:13 AM MDT 6:19 PM MDT
Nautical Twilight 6:38 AM MDT 6:55 PM MDT
Astronomical Twilight 6:03 AM MDT 7:30 PM MDT
Moon 5:34 AM MDT (11/1) 4:47 PM MDT (11/1)
Length of Visible Light 11h 05m
Length of Day
10h 02m
Waning Crescent, 4% of the Moon is Illuminated
Nov 1
Waning Crescent
Nov 3
New
Nov 9
First Quarter
Nov 17
Full
Nov 25
Last Quarter

Hourly Weather History & Observations

Time (MDT) Temp. Windchill Dew Point Humidity Pressure Visibility Wind Dir Wind Speed Gust Speed Precip Events Conditions
12:53 AM 42.1 °F 35.7 °F 34.0 °F 73% 29.84 in 10.0 mi WNW 11.5 mph - 0.00 in   Mostly Cloudy
1:53 AM 45.0 °F 37.9 °F 34.0 °F 65% 29.86 in 10.0 mi WNW 16.1 mph 27.6 mph 0.00 in Rain Light Rain
2:53 AM 43.0 °F 34.8 °F 32.0 °F 65% 29.89 in 10.0 mi NW 18.4 mph - 0.00 in   Mostly Cloudy
3:53 AM 39.0 °F 31.4 °F 33.1 °F 79% 29.92 in 10.0 mi West 12.7 mph - 0.00 in   Scattered Clouds
4:53 AM 39.9 °F 31.8 °F 30.0 °F 68% 29.93 in 10.0 mi West 15.0 mph - N/A   Partly Cloudy
5:53 AM 41.0 °F 31.6 °F 28.9 °F 62% 29.95 in 10.0 mi WNW 20.7 mph - N/A   Clear
6:53 AM 41.0 °F 30.7 °F 28.9 °F 62% 29.98 in 10.0 mi WNW 25.3 mph 35.7 mph N/A   Clear
7:53 AM 39.0 °F 29.6 °F 28.9 °F 67% 30.02 in 10.0 mi WNW 18.4 mph - N/A   Clear
8:53 AM 39.9 °F 32.1 °F 28.9 °F 65% 30.06 in 10.0 mi NW 13.8 mph - N/A   Clear
9:53 AM 44.1 °F 37.4 °F 30.0 °F 58% 30.09 in 10.0 mi NW 13.8 mph 20.7 mph N/A   Clear
10:53 AM 48.0 °F - 30.0 °F 50% 30.10 in 10.0 mi NW 15.0 mph - N/A   Clear
11:53 AM 51.1 °F - 30.0 °F 44% 30.10 in 10.0 mi WNW 16.1 mph - N/A   Partly Cloudy
12:53 PM 52.0 °F - 28.0 °F 40% 30.09 in 10.0 mi WNW 19.6 mph - N/A   Clear
1:53 PM 54.0 °F - 27.0 °F 35% 30.08 in 10.0 mi NW 19.6 mph - N/A   Clear
2:53 PM 55.0 °F - 26.1 °F 33% 30.07 in 10.0 mi WNW 19.6 mph 26.5 mph N/A   Partly Cloudy
3:53 PM 54.0 °F - 24.1 °F 31% 30.07 in 10.0 mi WNW 17.3 mph 26.5 mph N/A   Overcast
4:53 PM 53.1 °F - 23.0 °F 31% 30.08 in 10.0 mi WNW 13.8 mph - N/A   Scattered Clouds
5:53 PM 45.0 °F 40.6 °F 25.0 °F 46% 30.10 in 10.0 mi West 8.1 mph - N/A   Clear
6:53 PM 43.0 °F 38.8 °F 23.0 °F 45% 30.11 in 10.0 mi West 6.9 mph - N/A   Clear
7:53 PM 41.0 °F 35.8 °F 24.1 °F 51% 30.12 in 10.0 mi West 8.1 mph - N/A   Clear
8:53 PM 37.9 °F 32.7 °F 26.1 °F 62% 30.12 in 10.0 mi NW 6.9 mph - N/A   Scattered Clouds
9:53 PM 37.9 °F 32.7 °F 27.0 °F 65% 30.12 in 10.0 mi West 6.9 mph - N/A   Overcast
10:53 PM 37.0 °F 33.3 °F 26.1 °F 65% 30.11 in 10.0 mi SW 4.6 mph - N/A   Clear
11:53 PM 37.0 °F 33.3 °F 26.1 °F 65% 30.11 in 10.0 mi SE 4.6 mph - N/A   Partly Cloudy